Location: Arleux
(50.3632°N, 2.8721°E)
Time: 17:06:06
(UTC+00:00)

YAOGAN 6 - Pass Details

Date: 15 December 2019
Orbit: 466 x 505 km, 97.0° (Epoch: 29 January)

Event Time Altitude Azimuth Distance (km) Brightness Sun altitude
Rises 06:32:17 0° 17° (NNE) 2,615 6.2 -10.4°
Reaches altitude 10° 06:34:26 10° 23° (NNE) 1,728 5.3 -10.1°
Maximum altitude 06:38:04 49° 99° (E) 659 3.7 -9.5°
Drops below altitude 10° 06:41:40 10° 175° (S) 1,716 5.8 -9.0°
Sets 06:43:48 0° 181° (S) 2,594 6.6 -8.7°
